Date,TemperatureHighF,TemperatureAvgF,TemperatureLowF,DewpointHighF,DewpointAvgF,DewpointLowF,HumidityHigh,HumidityAvg,HumidityLow,PressureMaxIn,PressureMinIn,WindSpeedMaxMPH,WindSpeedAvgMPH,GustSpeedMaxMPH,PrecipitationSumIn
2013-1-1,48,43,38,47,39,36,95,88,74,30.07,29.53,17,6,17,0.03
2013-1-2,52,45,39,50,43,36,96,93,85,30.35,30.08,14,5,14,0.01
2013-1-3,53,51,49,51,49,48,97,94,91,30.64,30.35,13,5,13,0.00
2013-1-4,51,49,46,48,46,44,95,89,83,30.67,30.62,16,6,16,0.00
2013-1-5,51,48,43,49,47,42,98,94,89,30.62,30.53,12,4,12,0.00
2013-1-6,47,45,41,46,44,40,99,97,94,30.54,30.41,10,2,10,0.00
2013-1-7,48,46,45,46,45,44,97,95,93,30.41,30.27,12,5,12,0.01
2013-1-8,52,49,46,48,47,44,97,92,86,30.29,30.20,12,5,12,0.03
2013-1-9,49,44,32,49,43,31,98,96,88,30.20,30.09,8,2,8,0.09
2013-1-10,40,37,32,39,36,31,99,96,93,30.09,29.94,9,2,9,0.00
2013-1-11,44,38,34,40,36,33,98,95,83,30.10,29.98,12,2,12,0.00
2013-1-12,40,38,37,38,36,33,97,90,75,29.98,29.85,18,7,18,0.11
2013-1-13,38,36,31,37,32,29,93,85,76,30.16,29.96,12,4,12,0.00
2013-1-14,38,34,31,36,33,30,97,94,92,30.12,29.66,14,4,14,0.11
2013-1-15,37,34,28,34,32,26,96,92,86,29.89,29.65,17,4,17,0.00
2013-1-16,34,29,24,31,28,23,97,95,89,30.04,29.85,5,1,5,0.00
2013-1-17,37,31,24,33,29,22,98,90,79,30.10,29.89,15,2,15,0.00
2013-1-18,35,31,29,30,29,27,95,90,78,29.89,29.43,14,7,14,0.00
2013-1-19,34,32,31,32,30,28,95,92,87,29.49,29.41,15,4,15,0.00
2013-1-20,32,31,30,31,30,28,97,94,87,29.47,29.30,13,4,13,0.00
2013-1-21,35,31,26,31,29,24,97,93,82,29.52,29.28,4,1,4,0.02
2013-1-22,37,30,20,35,29,19,98,94,83,29.69,29.52,14,3,14,0.01
2013-1-23,36,35,35,34,32,31,92,88,86,29.82,29.69,9,4,9,0.04
2013-1-24,36,34,33,33,31,30,96,90,84,30.16,29.82,9,2,9,0.00
2013-1-25,38,34,33,36,31,29,95,88,82,30.14,29.58,24,6,24,0.08
2013-1-26,46,41,36,44,39,34,98,93,83,29.86,29.56,27,8,27,0.15
2013-1-27,50,46,40,49,42,36,97,84,61,29.65,29.29,36,12,36,0.33
2013-1-28,52,45,38,50,41,35,96,88,83,29.85,29.56,40,11,40,0.16
2013-1-29,56,53,49,54,51,47,97,93,84,29.69,29.59,29,13,29,0.09
2013-1-30,55,50,45,53,44,37,96,81,59,30.07,29.53,30,13,30,0.20
2013-1-31,52,48,46,46,42,38,93,79,65,30.08,29.82,29,12,29,0.08
2013-2-1,47,42,35,43,40,34,97,92,81,29.88,29.48,20,4,20,0.20
2013-2-2,42,38,29,38,32,27,98,81,65,30.27,29.61,20,8,20,0.01
2013-2-3,49,42,29,47,38,26,93,88,79,30.28,29.94,21,6,21,0.00
2013-2-4,51,48,44,48,41,35,91,77,57,29.97,29.75,24,11,24,0.00
2013-2-5,44,40,36,39,33,28,90,76,56,29.75,29.36,29,11,29,0.03
2013-2-6,43,40,36,39,34,29,92,80,69,30.08,29.39,26,10,26,0.02
2013-2-7,42,37,30,36,31,26,94,81,65,30.14,30.01,13,4,13,0.01
2013-2-8,44,37,30,37,33,29,97,87,65,30.17,30.05,16,4,16,0.00
2013-2-9,39,37,34,37,35,32,97,92,83,30.18,29.87,15,3,15,0.02
2013-2-10,41,38,35,40,37,34,98,96,95,29.87,29.25,21,9,21,0.61
2013-2-11,35,34,33,35,34,33,98,97,96,29.78,29.28,13,3,13,0.17
2013-2-12,36,35,33,34,32,30,96,90,85,30.15,29.78,10,3,10,0.01
2013-2-13,40,35,33,39,31,26,96,87,73,30.22,30.00,22,8,22,0.01
2013-2-14,53,46,39,47,42,38,98,88,66,30.00,29.76,26,8,26,0.07
2013-2-15,51,41,34,42,37,32,98,85,58,30.23,30.00,12,3,12,0.00
2013-2-16,50,42,36,42,38,35,95,85,60,30.26,30.21,8,2,8,0.00
2013-2-17,51,40,34,41,36,33,98,86,57,30.22,30.11,13,4,13,0.00
2013-2-18,49,38,30,38,34,29,98,86,64,30.16,30.11,13,3,13,0.00
2013-2-19,50,36,27,41,32,26,98,88,64,30.15,30.06,5,1,5,0.00
2013-2-20,44,37,30,38,33,28,98,85,66,30.27,30.11,15,5,15,0.02
2013-2-21,37,34,31,28,25,22,77,68,59,30.27,30.17,15,7,15,0.00
2013-2-22,36,34,33,28,25,22,79,70,65,30.17,30.10,17,7,17,0.00
2013-2-23,36,34,32,29,27,24,83,74,63,30.22,30.09,14,5,14,0.00
2013-2-24,36,35,33,30,29,28,87,79,74,30.29,30.20,15,6,15,0.00
2013-2-25,40,38,34,36,34,29,91,87,80,30.39,30.26,15,7,15,0.00
2013-2-26,41,39,37,39,38,35,97,94,91,30.57,30.38,15,6,15,0.03
2013-2-27,43,39,36,38,35,34,95,88,74,30.57,30.49,16,6,16,0.00
2013-2-28,46,40,36,39,36,33,91,85,77,30.49,30.34,17,6,17,0.00
2013-3-1,44,40,37,41,36,31,97,84,70,30.42,30.37,15,5,15,0.01
2013-3-2,44,37,29,34,31,27,93,80,67,30.41,30.29,10,3,10,0.00
2013-3-3,45,36,27,38,32,25,95,86,72,30.30,30.11,14,2,14,0.00
2013-3-4,54,40,29,38,33,27,97,81,49,30.11,29.75,12,3,12,0.00
2013-3-5,61,44,30,47,38,29,98,81,56,29.75,29.59,12,2,12,0.00
2013-3-6,59,50,42,48,44,39,93,80,65,29.59,29.50,10,2,10,0.02
2013-3-7,52,48,45,50,47,44,98,96,92,29.52,29.38,8,2,8,0.18
2013-3-8,50,49,48,50,49,47,98,98,97,29.55,29.38,10,1,10,0.26
2013-3-9,48,44,38,47,43,36,98,95,88,29.68,29.54,10,3,10,0.04
2013-3-10,39,37,34,36,33,30,91,87,83,29.75,29.66,21,8,21,0.00
2013-3-11,34,32,30,30,26,23,88,81,71,29.75,29.71,30,13,30,0.01
2013-3-12,42,35,29,33,24,19,87,68,46,29.83,29.72,30,12,30,0.00
2013-3-13,46,37,30,33,30,26,92,76,49,29.97,29.80,17,5,17,0.00
2013-3-14,46,36,27,33,27,24,96,72,45,30.05,29.94,12,3,12,0.00
2013-3-15,48,43,38,43,39,29,94,86,71,29.94,29.58,28,11,28,0.13
2013-3-16,46,44,42,44,41,39,95,92,89,29.58,29.29,34,13,35,0.71
2013-3-17,44,40,32,42,38,31,97,95,91,29.34,29.17,18,5,18,0.14
2013-3-18,46,39,32,43,38,31,99,95,86,29.37,29.23,10,2,10,0.20
2013-3-19,49,41,32,41,38,31,98,90,69,29.52,29.37,10,2,10,0.02
2013-3-20,47,40,32,39,37,31,97,89,74,30.01,29.51,14,3,14,0.00
2013-3-21,44,40,34,37,35,32,92,83,70,30.03,29.92,16,7,16,0.09
2013-3-22,47,40,37,39,36,35,94,87,73,29.92,29.72,20,6,20,0.21
2013-3-23,39,36,34,37,34,33,96,95,90,29.87,29.74,15,5,15,0.26
2013-3-24,35,33,32,34,30,25,95,87,69,29.95,29.85,18,7,18,0.00
2013-3-25,35,34,34,28,27,26,77,74,69,29.97,29.92,21,8,21,0.01
2013-3-26,36,34,33,28,27,25,77,73,67,29.94,29.88,20,7,20,0.00
2013-3-27,43,36,31,30,27,25,82,71,55,29.90,29.85,16,5,16,0.00
2013-3-28,42,36,30,32,27,22,91,71,54,29.96,29.85,13,4,13,0.00
2013-3-29,42,35,28,30,26,22,87,71,53,29.93,29.79,14,4,14,0.00
2013-3-30,43,37,29,33,30,27,92,77,59,29.98,29.78,15,4,15,0.00
2013-3-31,44,35,24,31,27,22,95,74,52,29.99,29.90,14,4,14,0.00
2013-4-1,45,37,32,31,28,24,88,71,47,29.90,29.84,23,7,23,0.00
2013-4-2,48,38,30,33,26,18,89,63,32,30.07,29.89,23,8,23,0.00
2013-4-3,39,35,27,32,26,24,93,71,59,30.07,30.00,24,7,24,0.00
2013-4-4,38,36,34,34,30,26,93,79,67,30.00,29.91,20,8,20,0.01
2013-4-5,46,39,35,33,29,23,83,69,45,30.12,29.90,24,8,24,0.04
2013-4-6,51,41,30,34,30,27,95,69,41,30.30,30.12,16,4,16,0.00
2013-4-7,51,40,29,32,28,22,94,67,33,30.30,29.89,14,3,14,0.00
2013-4-8,53,44,38,38,33,28,83,66,50,29.89,29.55,16,4,16,0.00
2013-4-9,47,42,37,43,40,34,96,90,82,29.56,29.38,12,3,12,0.10
2013-4-10,50,44,38,43,40,36,96,88,73,29.74,29.42,13,4,13,0.27
2013-4-11,55,47,43,50,45,42,97,92,76,29.51,29.36,15,4,15,0.12
2013-4-12,53,48,44,50,46,42,97,93,86,29.76,29.31,23,7,23,0.74
2013-4-13,53,48,39,51,46,38,98,93,80,29.92,29.76,23,9,23,0.20
2013-4-14,68,58,52,54,51,47,97,77,56,29.97,29.90,27,12,27,0.00
2013-4-15,62,55,49,52,48,45,88,79,66,30.09,29.95,22,9,22,0.00
2013-4-16,62,54,48,50,46,44,94,77,53,30.11,29.92,23,10,23,0.00
2013-4-17,65,56,48,54,50,46,97,83,63,30.11,29.80,27,10,27,0.00
2013-4-18,59,51,46,46,42,38,81,72,56,30.11,29.82,26,13,26,0.13
2013-4-19,55,47,40,44,41,37,90,81,53,30.51,30.12,16,7,16,0.00
2013-4-20,59,45,32,40,33,28,97,67,32,30.56,30.38,14,3,14,0.00
2013-4-21,60,46,31,42,36,29,96,70,37,30.38,30.05,14,4,15,0.00
2013-4-22,60,51,45,48,44,40,93,79,50,30.05,29.98,16,6,16,0.00
2013-4-23,70,59,50,51,49,46,93,71,45,30.23,30.00,14,5,16,0.00
2013-4-24,67,57,45,56,50,43,96,81,63,30.28,30.20,12,4,12,0.02
2013-4-25,73,60,50,57,51,48,97,77,45,30.27,30.03,18,5,18,0.12
2013-4-26,57,49,40,49,40,30,95,73,43,30.05,29.92,22,6,22,0.12
2013-4-27,53,42,34,42,37,32,94,80,55,30.12,29.90,20,4,20,0.07
2013-4-28,54,44,31,41,35,30,98,72,47,30.12,29.93,17,5,17,0.00
2013-4-29,59,51,42,44,38,34,89,65,42,30.18,29.91,20,7,20,0.00
2013-4-30,60,48,35,40,37,33,95,67,38,30.32,30.18,17,4,17,0.00
2013-5-1,63,50,37,44,37,31,94,65,31,30.32,30.16,13,4,13,0.00
2013-5-2,66,51,34,38,32,20,91,54,22,30.23,30.17,14,3,14,0.00
2013-5-3,69,53,35,46,39,32,91,62,31,30.20,30.06,15,4,15,0.00
2013-5-4,64,54,46,52,43,35,86,68,41,30.15,30.00,24,7,24,0.00
2013-5-5,65,56,42,52,47,39,95,74,57,30.21,30.15,12,3,12,0.00
2013-5-6,70,58,48,52,48,44,92,71,47,30.19,30.06,12,2,12,0.00
2013-5-7,74,59,42,51,45,39,94,64,35,30.09,29.86,14,3,14,0.00
2013-5-8,64,57,52,55,50,46,96,80,66,29.86,29.71,20,7,20,0.06
2013-5-9,58,51,45,48,44,41,92,78,56,29.86,29.70,33,12,33,0.06
2013-5-10,64,55,49,50,47,44,90,77,51,29.95,29.71,23,10,23,0.01
2013-5-11,58,50,42,51,44,40,96,83,62,29.94,29.82,22,8,22,0.24
2013-5-12,60,50,42,51,44,39,93,81,49,30.03,29.93,16,8,22,0.02
2013-5-13,60,53,46,51,45,38,93,75,46,29.93,29.83,24,9,24,0.09
2013-5-14,52,48,45,48,44,41,96,86,68,29.84,29.22,36,8,36,0.34
2013-5-15,58,48,42,47,42,38,92,78,52,29.57,29.17,33,10,33,0.01
2013-5-16,63,50,38,47,41,37,97,72,44,29.58,29.49,13,4,13,0.00
2013-5-17,55,48,38,47,42,36,97,81,68,29.82,29.57,12,3,12,0.00
2013-5-18,61,53,44,47,45,42,95,76,57,29.82,29.73,12,3,12,0.00
2013-5-19,67,57,47,51,48,44,94,74,55,29.90,29.78,15,3,15,0.00
2013-5-20,62,57,50,58,53,47,95,89,84,29.92,29.85,12,4,12,0.01
2013-5-21,61,56,50,57,51,47,94,84,75,30.08,29.91,14,4,14,0.01
2013-5-22,58,52,47,50,46,37,94,79,56,30.11,30.04,16,4,16,0.00
2013-5-23,54,47,42,41,38,32,85,72,50,30.03,29.90,17,6,17,0.00
2013-5-24,48,44,41,46,41,37,95,89,81,30.03,29.65,20,6,20,0.22
2013-5-25,59,50,42,44,41,38,94,74,48,30.18,30.03,13,4,13,0.01
2013-5-26,68,54,40,44,40,38,92,62,37,30.15,29.97,12,4,12,0.00
2013-5-27,65,54,41,46,42,36,89,65,42,29.98,29.63,23,7,23,0.00
2013-5-28,54,51,49,52,48,43,96,91,71,29.63,29.50,10,2,10,0.51
2013-5-29,56,51,44,53,48,43,96,91,74,29.78,29.57,12,3,12,0.05
2013-5-30,59,54,52,55,52,50,97,91,81,30.00,29.75,13,4,13,0.15
2013-5-31,72,60,52,58,52,49,92,78,56,30.13,30.00,14,4,14,0.00
2013-6-1,65,58,50,50,47,43,88,68,52,30.32,30.13,13,5,13,0.00
2013-6-2,66,55,43,47,44,41,95,68,45,30.45,30.31,12,3,12,0.00
2013-6-3,68,55,42,48,44,40,96,69,43,30.50,30.41,14,3,14,0.00
2013-6-4,71,57,41,50,44,38,92,66,41,30.43,30.21,17,4,17,0.00
2013-6-5,71,58,48,52,47,44,87,68,42,30.23,30.09,13,4,13,0.00
2013-6-6,72,59,48,55,49,45,90,69,44,30.19,30.13,15,4,15,0.00
2013-6-7,69,59,51,60,50,44,89,73,57,30.23,30.17,14,4,14,0.07
2013-6-8,67,57,48,50,47,44,88,71,51,30.22,30.07,18,6,18,0.00
2013-6-9,60,55,51,49,47,45,83,74,65,30.07,29.97,17,5,17,0.00
2013-6-10,62,55,47,50,46,43,86,73,60,30.01,29.96,9,2,9,0.00
2013-6-11,62,56,45,60,53,42,94,90,85,29.99,29.91,15,6,15,0.04
2013-6-12,62,59,56,60,57,54,95,92,85,29.92,29.81,21,9,21,0.09
2013-6-13,65,58,52,56,52,47,94,81,62,30.06,29.80,24,10,24,0.10
2013-6-14,67,57,49,53,49,42,90,75,42,30.08,29.81,20,7,20,0.00
2013-6-15,63,57,50,53,50,46,94,78,55,29.91,29.71,25,11,25,0.13
2013-6-16,64,58,53,52,50,46,88,76,58,29.98,29.90,12,5,12,0.01
2013-6-17,71,62,54,57,52,49,91,72,52,29.98,29.91,17,4,17,0.01
2013-6-18,70,63,55,63,58,52,94,85,75,29.98,29.90,12,2,12,0.01
2013-6-19,79,68,58,65,60,56,96,78,54,29.99,29.92,9,2,9,0.00
2013-6-20,70,65,58,63,60,54,93,85,74,29.96,29.81,12,2,12,0.00
2013-6-21,71,62,57,62,58,54,93,86,70,29.89,29.78,15,5,15,0.01
2013-6-22,65,58,53,57,53,50,96,84,66,29.89,29.68,27,11,27,0.10
2013-6-23,64,58,54,54,52,51,93,81,67,30.04,29.68,20,8,20,0.02
2013-6-24,63,56,50,51,47,43,91,72,54,30.31,30.04,15,5,15,0.00
2013-6-25,68,58,49,50,48,44,93,69,45,30.44,30.31,10,2,10,0.00
2013-6-26,70,60,48,54,50,45,92,70,50,30.45,30.36,12,2,12,0.00
2013-6-27,69,59,52,55,50,47,95,74,52,30.39,30.19,12,4,12,0.06
2013-6-28,70,61,54,64,58,52,97,90,75,30.19,30.06,14,4,14,0.04
2013-6-29,71,63,56,58,51,47,90,67,44,30.26,30.09,15,5,15,0.00
2013-6-30,79,68,57,62,58,53,94,72,47,30.26,30.08,15,5,15,0.00
2013-7-1,70,62,55,54,52,48,88,70,52,30.09,30.00,14,5,14,0.00
2013-7-2,63,58,51,56,52,48,89,80,66,30.01,29.68,18,5,18,0.00
2013-7-3,69,62,57,60,57,53,96,85,67,30.03,29.63,14,5,14,0.09
2013-7-4,74,64,54,64,58,51,92,82,66,30.27,30.03,14,6,14,0.00
2013-7-5,78,65,52,62,55,50,96,73,47,30.42,30.27,12,2,12,0.00
2013-7-6,81,67,51,62,56,49,94,71,41,30.43,30.35,9,2,9,0.00
2013-7-7,85,71,57,63,59,54,95,68,41,30.51,30.42,12,2,12,0.00
2013-7-8,82,69,55,61,56,52,91,67,39,30.52,30.42,15,3,15,0.00
2013-7-9,81,68,55,56,49,42,85,57,26,30.45,30.26,12,4,12,0.00
2013-7-10,77,65,52,60,54,48,90,69,50,30.29,30.23,16,4,16,0.00
2013-7-11,74,62,53,54,49,46,82,65,43,30.30,30.22,14,4,14,0.00
2013-7-12,76,63,52,59,54,49,91,73,50,30.31,30.22,9,2,9,0.00
2013-7-13,88,71,57,66,60,54,93,71,43,30.26,30.21,12,2,12,0.00
2013-7-14,84,73,62,65,60,57,89,66,41,30.26,30.18,13,3,13,0.00
2013-7-15,86,72,59,60,55,46,89,58,26,30.24,30.18,10,2,10,0.00
2013-7-16,86,73,61,61,59,56,84,63,40,30.23,30.17,13,3,13,0.00
2013-7-17,87,74,61,65,58,56,83,59,37,30.28,30.20,14,3,14,0.00
2013-7-18,85,72,60,61,58,55,90,65,39,30.32,30.26,14,3,14,0.00
2013-7-19,83,70,54,60,56,50,88,64,40,30.31,30.21,15,4,15,0.00
2013-7-20,76,67,60,62,60,56,93,77,60,30.26,30.15,16,4,16,0.00
2013-7-21,81,70,61,64,60,55,86,73,53,30.18,30.03,12,3,12,0.00
2013-7-22,91,75,63,67,62,58,94,67,37,30.06,29.95,14,3,14,0.00
2013-7-23,83,72,63,71,64,58,94,78,57,29.96,29.90,13,3,13,0.17
2013-7-24,81,69,59,62,59,56,90,73,48,29.99,29.93,14,4,14,0.00
2013-7-25,77,68,60,67,61,56,96,81,56,29.95,29.89,17,5,17,0.31
2013-7-26,80,68,55,61,57,51,95,70,47,29.93,29.86,15,3,15,0.00
2013-7-27,83,66,55,67,58,51,96,77,38,29.87,29.60,18,2,18,0.28
2013-7-28,76,66,58,61,59,56,96,79,56,29.80,29.61,21,9,21,0.37
2013-7-29,73,66,60,62,59,56,96,81,59,29.99,29.78,21,8,21,1.62
2013-7-30,70,64,60,66,61,57,95,91,82,29.99,29.87,18,6,18,0.11
2013-7-31,75,67,61,66,62,58,94,85,74,30.01,29.95,16,6,16,0.00
2013-8-1,90,75,62,70,64,60,96,71,39,29.96,29.69,20,7,20,0.00
2013-8-2,77,68,63,66,61,57,95,79,56,29.86,29.74,15,5,15,0.24
2013-8-3,75,65,59,60,57,53,95,77,54,30.11,29.82,21,8,21,0.01
2013-8-4,75,65,58,59,57,55,94,76,52,30.13,30.04,21,7,21,0.00
2013-8-5,73,65,60,63,59,56,95,83,60,30.04,29.76,18,6,18,0.24
2013-8-6,73,62,51,59,54,50,98,76,47,30.05,29.93,9,2,9,0.00
2013-8-7,74,63,52,58,52,49,95,70,46,30.05,29.92,12,2,12,0.00
2013-8-8,77,64,50,60,53,48,95,72,42,30.14,30.04,16,3,16,0.00
2013-8-9,76,67,61,62,56,50,94,71,45,30.19,30.04,14,6,14,0.02
2013-8-10,73,63,54,55,51,47,83,65,43,30.22,30.15,13,3,13,0.00
2013-8-11,75,66,59,59,54,49,87,67,42,30.15,30.02,18,6,18,0.00
2013-8-12,70,62,55,54,50,45,87,66,43,30.11,30.01,16,4,16,0.00
2013-8-13,70,59,51,57,51,47,94,76,47,30.22,30.11,14,4,14,0.02
2013-8-14,73,62,50,61,55,49,98,81,54,30.24,30.16,14,4,14,0.02
2013-8-15,75,67,62,64,61,58,95,82,64,30.16,30.02,20,7,20,0.00
2013-8-16,71,65,60,64,61,58,94,88,78,30.03,29.95,15,5,15,0.02
2013-8-17,68,62,56,61,58,54,96,87,70,30.00,29.76,22,8,22,0.02
2013-8-18,73,65,60,62,59,53,95,80,55,29.92,29.74,13,6,14,0.01
2013-8-19,72,63,53,55,52,49,91,68,47,30.32,29.92,13,3,13,0.00
2013-8-20,75,63,52,56,52,49,92,70,45,30.37,30.31,8,2,8,0.00
2013-8-21,78,65,53,58,55,50,94,71,44,30.32,30.16,12,3,12,0.00
2013-8-22,72,65,61,67,62,57,97,91,78,30.17,30.06,7,1,7,0.34
2013-8-23,82,69,58,64,60,57,98,78,48,30.06,29.85,13,3,13,0.00
2013-8-24,66,62,58,63,61,56,97,94,88,29.89,29.82,13,3,13,0.76
2013-8-25,73,62,54,66,58,53,99,90,67,30.05,29.84,14,2,14,0.22
2013-8-26,78,65,55,63,58,51,98,78,48,30.09,30.04,12,2,12,0.00
2013-8-27,73,60,50,60,53,48,98,80,48,30.13,30.05,8,1,8,0.00
2013-8-28,75,61,48,58,53,47,97,78,47,30.24,30.13,7,1,7,0.00
2013-8-29,75,64,54,60,56,52,96,77,48,30.21,30.14,12,3,12,0.00
2013-8-30,76,66,57,62,59,55,96,79,57,30.16,30.06,16,4,16,0.00
2013-8-31,69,62,51,60,50,43,95,68,42,30.41,30.13,12,4,12,0.00
2013-9-1,69,58,45,52,48,42,92,71,51,30.46,30.35,13,3,13,0.00
2013-9-2,78,64,53,61,56,50,92,76,54,30.37,30.30,12,3,12,0.00
2013-9-3,76,64,54,65,59,53,98,84,59,30.37,30.27,7,1,7,0.00
2013-9-4,82,66,53,64,57,51,98,76,44,30.28,30.00,12,2,12,0.00
2013-9-5,83,68,55,65,58,50,97,73,46,30.00,29.77,9,2,9,0.00
2013-9-6,62,59,52,59,54,49,96,86,72,29.85,29.73,12,3,12,0.20
2013-9-7,65,56,50,55,50,47,96,81,60,30.06,29.84,18,5,18,0.09
2013-9-8,62,53,48,53,49,46,96,87,64,30.08,30.05,20,4,20,0.09
2013-9-9,59,53,46,57,51,45,97,94,91,30.07,29.96,12,2,12,0.13
2013-9-10,62,54,46,53,49,46,98,84,65,30.17,30.07,15,4,15,0.00
2013-9-11,62,57,54,55,51,48,96,81,67,30.18,30.12,14,4,14,0.08
2013-9-12,65,59,54,60,56,53,97,91,78,30.13,30.08,12,2,12,0.03
2013-9-13,68,63,61,65,62,60,98,96,89,30.08,29.87,14,3,14,0.59
2013-9-14,62,52,46,61,51,46,98,95,87,30.09,29.86,15,3,15,0.10
2013-9-15,61,52,41,59,50,41,99,92,72,30.08,29.57,21,6,21,0.07
2013-9-16,60,52,47,50,43,40,88,73,52,29.67,29.59,21,7,21,0.00
2013-9-17,60,53,47,59,50,42,97,87,72,29.67,29.35,15,6,15,0.24
2013-9-18,60,55,47,56,50,44,97,85,64,29.89,29.41,15,4,15,0.04
2013-9-19,62,55,46,60,51,43,95,87,75,29.92,29.75,18,5,18,0.00
2013-9-20,66,56,49,54,50,47,95,82,59,30.20,29.89,9,2,9,0.00
2013-9-21,65,58,48,61,55,47,97,90,81,30.32,30.19,13,3,13,0.00
2013-9-22,67,63,58,62,60,57,97,92,81,30.38,30.32,6,2,6,0.00
2013-9-23,67,60,52,61,57,51,98,92,81,30.34,30.12,7,1,7,0.00
2013-9-24,70,58,49,64,56,48,99,93,79,30.12,29.93,7,1,7,0.00
2013-9-25,70,61,54,63,58,54,98,92,76,29.93,29.83,7,0,7,0.10
2013-9-26,68,59,51,61,55,49,98,87,62,30.06,29.91,9,1,9,0.00
2013-9-27,65,55,47,56,50,46,98,86,65,30.06,29.92,10,2,10,0.00
2013-9-28,65,58,52,60,54,50,97,88,72,29.92,29.74,12,2,12,0.02
2013-9-29,67,59,55,57,54,53,92,84,70,29.75,29.70,14,4,14,0.00
2013-9-30,67,59,52,59,54,51,97,86,71,29.78,29.68,10,1,10,0.00
2013-10-1,62,56,48,58,53,47,98,88,77,29.82,29.75,13,2,13,0.00
2013-10-2,69,61,57,64,58,54,96,90,79,29.89,29.78,13,4,13,0.01
2013-10-3,65,61,56,63,60,55,98,96,92,29.88,29.70,22,5,22,0.15
2013-10-4,69,63,58,63,60,56,98,90,77,29.95,29.69,23,8,23,0.02
2013-10-5,65,60,51,59,57,50,96,90,77,30.26,29.95,7,1,7,0.00
2013-10-6,68,54,45,56,50,44,99,87,59,30.31,30.26,9,1,9,0.00
2013-10-7,66,57,48,59,54,47,99,90,74,30.31,30.26,10,2,10,0.00
2013-10-8,69,62,55,60,58,54,98,88,69,30.30,30.24,12,3,12,0.00
2013-10-9,62,56,46,58,51,39,95,83,69,30.25,30.00,18,4,18,0.00
2013-10-10,54,48,43,44,40,38,87,75,61,30.13,30.02,21,8,21,0.01
2013-10-11,55,52,47,54,49,41,97,91,77,30.13,29.96,20,8,20,0.50
2013-10-12,58,51,44,54,48,42,97,92,66,30.13,29.96,21,3,21,0.16
2013-10-13,52,50,47,52,49,46,98,96,92,30.03,29.80,16,5,16,0.44
2013-10-14,53,49,47,50,47,45,97,94,83,29.81,29.73,12,5,12,0.17
2013-10-15,55,48,42,50,47,41,97,93,82,29.97,29.77,9,2,9,0.00
2013-10-16,62,50,39,59,48,39,99,93,77,29.98,29.70,20,5,20,0.07
2013-10-17,62,57,51,58,54,50,98,91,81,30.02,29.84,16,5,16,0.02
2013-10-18,64,56,49,60,54,48,99,94,84,30.03,29.77,13,3,13,0.00
2013-10-19,64,59,54,61,57,53,97,93,84,29.77,29.66,17,6,17,0.02
2013-10-20,62,57,54,58,55,52,97,94,87,29.77,29.64,26,8,26,0.47
2013-10-21,63,60,56,59,58,55,97,92,86,29.77,29.62,24,9,24,0.09
2013-10-22,64,61,57,61,58,54,95,91,78,29.62,29.34,23,10,23,0.10
2013-10-23,63,57,46,58,53,45,96,88,71,29.87,29.26,28,9,28,0.31
2013-10-24,63,53,44,57,50,43,98,91,76,29.99,29.82,13,4,13,0.00
2013-10-25,64,60,56,61,57,54,98,91,84,29.82,29.60,23,8,23,0.16
2013-10-26,64,60,57,58,56,54,93,89,81,29.72,29.50,32,11,32,0.04
2013-10-27,60,56,52,56,52,49,97,87,70,29.51,29.23,27,12,27,0.57
2013-10-28,61,54,48,59,50,44,98,87,70,29.61,28.93,43,13,43,0.67
2013-10-29,56,48,44,47,43,40,91,83,64,30.08,29.61,17,6,17,0.00
2013-10-30,57,50,38,52,46,37,98,87,72,30.19,30.08,21,5,21,0.00
2013-10-31,56,54,52,54,52,51,96,93,86,30.09,29.95,20,7,20,0.19
2013-11-1,58,54,52,55,52,50,97,93,88,29.95,29.54,20,5,20,0.06
2013-11-2,60,52,49,54,49,43,99,87,72,29.59,29.42,28,8,28,0.04
2013-11-3,53,48,45,49,43,40,97,82,70,29.61,29.03,23,8,23,0.44
2013-11-4,50,45,40,49,42,38,97,90,71,29.52,29.00,18,5,18,0.39
2013-11-5,55,48,39,51,45,37,98,88,69,29.54,29.26,22,7,22,0.13
2013-11-6,60,55,49,57,52,45,98,91,85,29.56,29.50,25,8,25,0.03
2013-11-7,59,50,44,56,47,42,94,88,72,29.79,29.54,25,3,25,0.00
2013-11-8,54,46,43,50,44,41,96,94,82,29.79,29.59,14,4,14,0.21
2013-11-9,46,42,39,45,41,38,98,95,91,29.79,29.62,13,3,13,0.19
2013-11-10,49,41,35,43,39,34,98,92,69,30.29,29.63,15,3,15,0.02
2013-11-11,56,49,37,55,48,36,99,96,89,30.27,30.16,20,6,20,0.11
2013-11-12,56,49,37,56,48,36,99,95,79,30.53,30.16,14,3,14,0.06
2013-11-13,49,40,33,46,38,32,100,93,81,30.58,30.23,14,2,14,0.01
2013-11-14,49,45,37,46,41,35,93,85,71,30.43,30.13,22,7,22,0.00
2013-11-15,50,39,33,42,36,31,97,90,72,30.55,30.43,12,2,12,0.00
2013-11-16,49,40,31,44,38,30,99,94,81,30.54,30.39,9,1,9,0.00
2013-11-17,49,46,44,47,45,43,97,95,91,30.39,30.03,4,0,4,0.00
2013-11-18,50,47,42,48,46,41,98,95,90,30.03,29.77,12,2,12,0.02
2013-11-19,42,37,29,41,34,27,97,88,68,30.08,29.81,14,4,14,0.00
2013-11-20,46,38,28,43,36,27,96,92,82,30.06,29.42,27,6,27,0.20
2013-11-21,45,41,36,40,38,34,97,90,72,29.94,29.42,23,6,23,0.02
2013-11-22,46,40,34,39,37,32,97,88,75,30.17,29.93,17,3,17,0.00
2013-11-23,45,40,36,41,38,34,98,92,81,30.33,30.17,10,2,10,0.01
2013-11-24,47,43,40,44,40,37,93,88,75,30.58,30.33,13,4,13,0.00
2013-11-25,45,42,39,40,38,37,93,87,79,30.70,30.57,15,4,15,0.00
2013-11-26,45,41,34,40,37,32,94,86,74,30.73,30.60,10,2,10,0.00
2013-11-27,50,46,42,48,44,39,97,95,91,30.59,30.50,4,0,4,0.00
2013-11-28,49,48,46,47,46,45,97,95,90,30.58,30.53,0,0,0,0.00
2013-11-29,50,47,43,45,42,38,96,85,72,30.53,30.20,17,6,17,0.00
2013-11-30,47,43,34,42,38,33,95,84,78,30.49,30.20,16,5,16,0.00
2013-12-1,48,41,32,44,39,30,97,93,85,30.58,30.46,5,1,5,0.00
2013-12-2,49,43,39,45,42,37,98,93,81,30.58,30.46,6,0,6,0.00
2013-12-3,44,42,40,41,39,36,96,89,82,30.46,30.34,7,1,7,0.00
2013-12-4,48,42,33,45,38,31,96,87,70,30.51,30.32,12,3,12,0.00
2013-12-5,51,43,34,46,38,33,96,83,71,30.50,30.06,32,10,32,0.02
2013-12-6,47,42,34,43,37,31,92,84,71,30.40,30.26,18,4,18,0.01
2013-12-7,49,46,44,45,43,42,93,90,84,30.38,30.29,12,5,12,0.00
2013-12-8,52,48,42,47,44,40,92,88,82,30.34,30.27,17,7,17,0.00
2013-12-9,52,46,40,48,44,39,97,93,85,30.42,30.33,12,4,12,0.00
2013-12-10,46,42,37,44,41,37,98,96,93,30.48,30.42,9,3,9,0.00
2013-12-11,44,38,30,43,36,29,100,95,90,30.45,30.32,14,3,14,0.00
2013-12-12,48,42,34,47,41,33,99,97,95,30.32,30.21,16,6,16,0.00
2013-12-13,53,50,46,50,48,42,97,93,83,30.22,30.04,20,7,20,0.06
2013-12-14,52,47,39,49,44,37,94,88,78,30.32,30.08,30,10,30,0.06
2013-12-15,54,52,45,53,51,44,99,96,91,30.19,30.01,30,12,30,0.34
2013-12-16,54,52,45,53,51,44,98,96,92,30.13,29.97,32,10,32,0.43
2013-12-17,45,43,40,45,42,39,98,97,95,30.28,29.99,12,1,12,0.19
2013-12-18,50,47,41,49,45,40,98,95,89,30.00,29.33,37,12,37,0.46
2013-12-19,48,43,37,47,40,35,96,89,74,29.89,29.34,18,6,18,0.14
2013-12-20,51,45,36,47,41,35,97,86,78,30.21,29.89,27,10,27,0.00
2013-12-21,53,51,48,51,49,44,97,94,85,30.08,29.75,37,16,37,0.64
2013-12-22,50,46,42,46,42,37,94,84,73,29.94,29.75,25,9,25,0.05
2013-12-23,52,49,42,51,46,38,96,92,83,29.94,28.91,44,18,44,1.46
2013-12-24,52,46,41,51,44,40,96,92,84,29.01,28.83,44,11,44,0.83
2013-12-25,42,40,35,41,38,34,98,95,90,29.18,28.95,16,4,16,0.12
2013-12-26,46,39,34,44,38,33,99,97,84,29.52,29.18,39,5,39,0.01
2013-12-27,52,48,43,51,44,38,97,85,73,29.29,29.05,40,14,40,0.21
2013-12-28,47,41,33,41,37,32,96,86,76,29.73,29.28,13,4,13,0.00
2013-12-29,47,39,33,43,37,32,98,91,79,30.11,29.73,18,5,18,0.00
2013-12-30,50,47,43,49,45,41,97,92,84,30.03,29.70,41,13,41,0.37
2013-12-31,51,46,41,48,45,39,97,93,89,29.87,29.57,26,10,26,0.27
2014-1-1,52,48,42,50,46,40,97,95,91,29.61,29.05,35,16,35,0.81
2014-1-2,51,48,44,49,45,42,97,91,81,29.48,29.09,25,9,25,0.29